{"data":{"norad_id":59734,"epoch":"2026-09-21T00:34:27.847488Z","epoch_age_seconds":126068,"freshness":"FRESH","line1":"1 59734U 24090E   26264.02393342 -.00000037  00000+0  81869-5 0  9996","line2":"2 59734  43.0023 153.4626 0001098 271.1919  88.8807 15.27576548133395","mean_motion":15.27576548,"eccentricity":0.0001098,"inclination_deg":43.0023,"raan_deg":153.4626,"arg_perigee_deg":271.1919,"mean_anomaly_deg":88.8807,"bstar":8.1869e-6,"rev_number":13339,"period_min":94.266961736572,"perigee_km":482.30607322067,"apogee_km":483.81279195727,"semimajor_km":6861.196432589,"source":"CELESTRAK","updated_at":"2026-09-22T09:00:49.062303Z"}}